Theta_e
307 309 312 310 309 310 311 309 313 314 311 310 311 313 312 318 320 319 319 319 319 318 315 317 317 317 317 316 315 315 315 314 313 313 313 314 314 314 314 315 314 315 317 318
306 306 306 308 309 309 308 307 307 308 308 309 311 310 312 315 319 320 319 319 319 318 317 317 317 317 316 315 315 314 314 312 312 311 311 312 312 313 313 314 314 315 316 317
305 304 302 303 304 306 307 306 305 308 310 309 310 313 312 312 317 319 320 319 319 318 317 317 317 317 316 315 314 313 313 311 311 311 309 310 311 311 311 312 313 313 313 313
305 301 302 301 298 300 306 308 306 306 306 310 313 312 311 310 311 314 317 318 318 318 317 317 316 316 316 314 314 312 311 310 310 310 309 309 310 310 309 310 311 311 310 310
306 303 300 301 299 298 301 306 307 307 309 308 308 310 310 308 308 308 309 311 317 317 317 316 316 316 315 313 313 311 310 310 309 309 308 309 308 309 309 309 308 308 309 309
299 302 302 298 301 301 301 311 306 304 303 304 306 314 312 308 307 307 308 311 316 316 316 316 315 315 314 313 312 311 311 310 309 309 308 307 308 307 307 307 307 306 304 304
303 302 300 298 298 300 301 305 304 303 302 302 304 306 307 307 307 307 307 314 316 316 316 316 315 314 314 313 313 311 311 311 309 308 307 308 307 306 306 305 304 303 303 302
303 305 303 299 300 300 300 301 302 301 302 302 304 305 306 306 306 307 308 315 315 315 315 315 314 314 314 313 313 311 312 310 309 308 306 307 306 304 304 303 302 300 300 300
302 302 299 297 299 299 299 300 300 300 302 303 304 305 306 307 307 307 308 313 314 315 314 314 314 314 313 313 312 310 311 309 307 306 307 305 305 303 302 302 300 298 298 298
301 300 299 298 300 298 299 299 299 300 301 304 304 305 305 306 308 308 308 314 314 314 314 314 313 313 313 312 312 311 309 307 306 306 304 303 303 303 302 301 298 297 296 296
298 297 298 298 298 299 299 298 299 300 300 303 303 303 304 305 307 308 308 312 314 313 313 313 313 313 312 312 311 309 308 305 304 305 304 303 303 303 303 300 299 297 296 296
299 297 298 298 298 297 298 297 297 298 300 300 301 303 303 304 306 307 308 312 314 313 313 313 313 312 311 311 310 308 305 303 302 305 301 302 301 299 300 299 297 296 295 295
299 296 296 297 296 295 296 297 297 297 297 298 300 302 304 304 304 305 308 310 313 313 313 313 312 312 311 311 310 308 305 303 304 306 299 299 298 297 295 295 294 293 294 295
297 296 297 296 297 296 296 297 297 297 298 300 301 302 301 302 303 306 307 308 313 313 312 312 312 311 310 310 309 309 308 306 307 304 300 299 298 296 295 296 296 295 292 293
295 294 296 296 295 295 295 296 296 297 298 299 300 300 301 303 307 307 307 308 313 313 312 312 311 310 309 309 309 309 308 307 309 304 301 301 299 297 296 296 296 296 295 294
295 295 295 295 295 296 295 295 297 298 297 297 299 300 302 306 307 307 307 311 313 313 312 312 311 310 309 309 308 307 308 310 307 303 301 299 299 297 296 296 296 296 296 295
296 297 295 296 296 296 296 296 296 296 297 299 300 303 305 306 307 307 308 313 314 313 312 312 312 309 308 308 308 307 306 307 308 304 301 300 299 298 297 296 296 296 296 296
296 297 297 297 297 297 297 296 297 298 299 300 303 305 305 306 307 307 310 314 314 312 312 312 311 308 308 308 308 306 306 304 303 303 301 300 299 299 297 296 296 296 296 296
299 298 297 297 297 297 297 298 298 298 300 303 307 307 307 307 307 312 314 314 313 312 312 312 309 308 308 307 307 307 306 304 303 302 302 300 299 299 298 297 296 296 295 296
301 300 299 299 298 297 298 298 298 299 301 305 307 307 308 307 309 313 313 313 313 313 312 309 308 308 307 306 308 306 306 305 303 302 301 300 300 299 299 298 297 296 295 295
302 302 301 299 298 297 297 298 299 300 301 305 305 308 305 308 311 312 312 313 312 312 308 309 308 306 305 304 306 305 305 304 303 302 300 300 299 299 298 298 297 296 296 295
300 301 300 299 298 298 297 298 298 300 303 304 306 306 304 308 312 311 312 312 310 309 306 306 306 305 305 304 305 305 305 304 303 301 300 300 300 299 298 297 297 296 296 296
298 299 300 300 298 298 298 299 299 300 304 305 306 304 304 309 312 312 312 311 309 308 306 305 304 305 304 304 303 304 305 304 303 302 303 303 301 300 299 298 297 297 296 296
296 297 299 300 299 299 299 298 299 302 305 307 307 305 306 308 310 313 313 311 310 306 306 304 304 304 304 303 303 303 305 304 303 304 304 304 302 301 300 299 298 297 296 296
293 295 298 299 299 298 297 298 299 300 302 304 305 305 306 307 309 311 312 309 308 306 305 304 304 303 303 302 302 304 305 305 305 305 304 304 302 301 301 300 299 298 297 297
291 294 297 298 298 297 297 297 298 298 301 304 305 306 308 307 307 308 310 309 306 307 305 303 303 303 303 302 303 304 306 306 306 305 305 304 303 302 302 301 300 299 298 298
293 296 296 297 298 298 297 298 297 297 298 301 304 306 307 305 307 307 308 307 307 306 305 303 303 302 303 303 304 304 306 307 307 306 305 305 304 304 303 302 301 300 299 298
Wind_Speed
13 14 4 5 12 7 7 5 4 2 8 14 13 10 10 6 7 10 12 14 15 14 12 15 14 13 11 12 11 11 11 10 10 10 11 10 10 11 11 12 13 14 18 21
15 14 14 14 16 14 13 16 11 11 16 9 11 3 5 8 5 9 12 14 16 15 15 16 17 16 14 14 14 13 13 12 12 12 12 13 14 15 14 15 19 21 21 21
8 9 6 9 15 17 12 11 10 11 12 16 11 8 7 8 8 11 12 14 16 18 16 21 21 19 17 17 16 14 15 15 13 14 15 17 17 17 18 17 18 23 26 26
5 3 6 4 4 6 11 12 9 9 10 15 9 7 9 5 6 6 7 11 14 14 21 22 22 20 19 20 19 17 17 17 15 16 17 19 22 21 20 22 23 24 25 24
4 7 5 9 8 1 4 3 10 13 9 8 11 4 3 7 8 8 10 10 15 24 26 26 27 24 23 20 21 18 19 19 17 18 20 21 22 23 24 27 27 27 26 27
3 5 7 5 4 2 2 6 2 7 4 2 12 2 2 12 14 13 15 14 14 22 26 29 29 31 25 22 22 18 23 22 20 20 22 22 22 22 23 25 26 25 24 22
6 2 4 12 4 1 4 4 4 3 2 4 3 5 12 12 13 14 16 13 13 22 24 28 31 31 26 25 23 23 26 24 22 21 21 20 22 23 23 24 25 25 26 23
4 3 9 5 3 5 4 3 5 3 2 4 6 8 9 11 10 11 12 4 14 18 21 27 32 31 26 25 25 28 28 26 25 23 21 21 24 24 24 26 26 23 24 24
7 6 3 3 3 3 4 1 1 2 6 6 6 6 8 10 10 9 11 8 13 17 19 24 30 31 27 24 30 30 30 28 27 25 23 24 26 26 24 23 23 20 19 18
2 9 9 7 3 3 5 4 3 4 5 9 8 7 9 10 10 8 10 8 14 17 19 21 27 27 29 30 33 33 31 31 30 28 25 24 25 25 25 23 21 21 20 18
6 4 4 5 6 7 10 4 4 5 6 9 10 10 8 10 10 9 11 8 15 18 20 23 27 26 31 34 34 30 32 32 31 28 28 26 25 25 23 21 21 23 21 23
10 5 5 9 9 4 7 8 6 6 7 9 11 13 9 9 11 10 12 7 14 17 22 25 28 28 32 36 36 33 29 29 30 30 27 27 25 21 17 16 15 14 17 19
11 5 6 9 6 6 11 15 15 8 9 14 14 12 11 10 14 16 17 9 16 21 23 25 28 30 33 37 36 35 31 30 32 32 28 29 25 26 21 14 14 14 18 17
9 4 7 13 12 6 15 16 18 14 14 15 14 17 14 13 19 15 16 14 16 21 24 28 29 30 36 38 36 36 34 36 35 34 32 30 29 24 25 23 19 17 17 18
15 11 19 20 12 11 12 12 12 13 11 13 16 10 16 11 16 16 20 16 18 23 26 29 29 31 36 39 37 38 37 36 37 35 34 33 31 26 26 26 23 23 21 17
11 13 17 17 16 16 14 13 13 14 10 13 14 11 18 18 19 22 23 13 20 20 29 30 31 34 38 39 37 37 38 41 38 36 34 32 32 29 26 25 24 25 24 24
14 15 10 13 15 18 16 13 14 14 11 13 13 18 12 15 14 21 17 17 26 25 30 32 30 36 39 39 40 35 36 40 39 36 34 34 33 31 30 28 27 26 25 24
12 16 17 16 15 14 15 15 13 13 12 17 16 12 12 8 12 16 16 20 21 21 26 31 33 37 38 39 37 38 38 36 36 36 35 34 33 33 31 29 28 26 24 23
8 10 13 14 17 17 17 14 13 17 18 17 7 9 13 19 20 17 16 21 21 19 26 31 40 41 39 40 40 40 38 37 35 34 35 34 33 33 32 30 28 26 25 25
9 7 10 11 14 14 15 18 18 14 15 11 9 10 12 21 20 16 22 21 24 22 29 37 43 38 39 43 45 40 40 38 36 34 34 34 34 33 32 30 29 27 26 26
8 12 14 11 9 12 17 17 14 10 11 10 9 12 11 17 16 18 15 8 19 25 35 42 37 35 38 41 43 39 39 37 36 36 35 34 33 33 32 31 30 29 28 27
8 11 13 11 10 10 8 14 15 13 11 8 14 11 14 13 15 16 18 17 24 33 35 36 35 39 38 42 37 39 39 38 37 36 34 35 35 34 33 32 32 31 30 28
6 6 9 7 8 10 10 5 12 15 15 17 16 13 14 10 13 9 7 20 31 37 34 33 36 45 45 41 36 38 40 38 38 38 38 37 36 35 34 33 32 31 31 29
8 6 6 11 8 6 8 8 5 13 18 19 17 21 15 9 9 17 12 26 34 38 31 32 41 46 46 36 36 37 39 39 38 38 37 36 34 33 32 32 32 30 29 28
10 11 5 5 5 4 9 13 11 5 9 7 10 18 12 10 9 14 19 28 36 36 29 39 44 46 36 35 36 38 40 40 40 39 37 36 34 33 32 31 30 30 29 27
7 5 6 7 6 7 7 8 4 9 4 3 9 10 10 13 9 13 25 28 33 30 30 36 40 41 35 35 37 39 40 40 39 38 37 35 33 32 31 30 29 29 28 27
10 7 5 5 8 13 12 10 7 5 10 3 8 13 17 10 8 18 25 29 27 27 31 33 36 35 37 37 38 38 40 39 38 37 35 34 33 32 31 30 30 29 28 27
Wind_Direction
278 278 175 233 272 271 278 272 239 316 314 290 306 299 292 272 196 182 191 190 191 186 187 186 175 165 160 152 153 148 132 128 122 119 111 109 108 101 101 97 97 117 130 130
268 275 269 256 239 243 247 267 247 257 280 257 267 286 280 262 227 218 206 204 198 195 190 185 180 170 165 159 156 152 136 129 128 122 114 108 102 104 108 105 103 110 117 120
256 243 258 262 242 237 233 232 228 226 234 271 283 283 275 284 217 228 218 207 201 199 195 185 181 171 168 164 160 152 139 134 132 124 116 108 105 103 108 110 110 104 106 107
240 200 238 255 261 241 244 243 229 239 249 259 266 279 286 315 309 293 252 217 207 196 194 186 176 173 166 165 162 154 144 140 139 131 120 114 108 106 108 114 114 111 109 108
216 213 310 302 288 265 169 237 226 232 232 326 302 242 117 42 359 322 302 280 220 195 186 175 171 169 165 162 161 158 151 147 146 140 129 122 114 112 112 113 113 113 114 113
158 185 215 234 146 58 322 206 71 69 24 344 317 189 199 351 337 326 320 307 189 180 177 171 168 168 162 163 160 165 160 157 152 149 139 129 123 124 123 119 115 116 110 108
189 214 266 258 226 215 183 161 209 178 317 349 326 290 309 312 320 320 318 305 177 170 176 174 164 165 163 164 168 170 163 159 156 156 147 136 135 134 131 124 120 115 112 111
145 177 246 200 118 182 215 165 183 232 236 280 277 292 307 312 310 317 322 283 170 170 177 170 166 166 166 167 167 167 165 161 159 158 149 147 142 139 135 131 124 119 117 113
186 213 226 170 157 190 205 291 204 253 301 283 290 321 317 306 311 313 320 269 185 172 176 171 171 171 166 167 163 164 163 162 161 159 152 153 147 144 140 138 134 130 126 121
140 241 239 239 205 224 230 213 260 276 275 291 286 295 301 295 299 312 318 252 188 171 178 175 176 174 170 164 166 164 158 160 163 157 155 156 154 154 152 152 145 143 139 131
258 297 332 250 224 234 264 261 191 241 263 261 293 293 287 289 293 305 304 273 192 181 182 182 175 171 168 166 166 159 158 160 161 160 161 160 163 165 165 164 162 157 152 147
235 185 211 245 236 200 233 255 247 215 269 259 266 273 271 273 277 293 289 276 197 190 182 183 177 170 168 170 167 160 152 156 160 166 164 165 164 161 166 163 163 160 155 152
238 187 213 239 240 210 241 261 267 250 237 264 271 265 275 282 285 288 281 266 211 192 183 181 178 171 171 171 169 166 158 159 163 173 169 166 164 160 148 146 148 154 157 152
245 118 263 251 253 235 238 254 263 265 251 245 255 265 272 285 281 272 274 274 227 191 181 179 178 175 174 173 171 169 168 170 172 174 174 172 171 167 155 149 148 147 156 156
256 223 244 257 260 250 242 246 250 256 252 257 253 240 266 255 272 273 283 269 205 186 181 179 177 175 175 175 171 170 169 171 182 179 181 179 177 171 166 162 156 153 152 158
243 229 235 244 256 255 251 246 238 248 239 251 256 253 246 253 256 284 275 223 184 188 181 182 181 176 175 174 172 169 172 179 182 179 178 180 179 176 172 169 165 163 165 168
260 263 236 242 241 250 247 244 237 239 238 241 244 247 243 255 285 279 243 215 199 193 179 183 182 173 175 175 173 167 167 176 184 179 180 181 180 180 180 179 177 176 178 177
262 259 258 252 248 243 244 239 238 235 233 242 238 249 262 273 274 263 229 197 188 181 178 182 174 170 171 175 172 169 170 170 176 179 181 182 184 186 185 185 185 183 182 182
287 277 275 263 248 241 241 238 228 228 232 228 216 260 281 274 276 251 192 178 178 169 181 177 175 170 170 174 174 172 171 170 174 179 183 184 186 190 189 190 190 189 186 183
289 294 302 302 265 236 234 232 233 229 227 208 241 279 262 268 252 204 181 186 185 184 175 172 172 170 171 174 179 173 174 174 175 178 181 183 188 190 193 194 194 192 191 192
318 340 321 308 305 255 227 225 215 219 228 193 244 243 263 268 228 182 174 178 186 186 175 174 169 168 169 171 177 174 173 173 176 178 179 184 188 192 194 195 196 196 196 198
320 324 306 316 316 311 254 208 208 208 191 236 246 256 277 245 200 185 187 185 176 182 170 168 169 171 172 171 174 174 174 177 178 179 181 187 190 192 194 196 197 197 199 200
283 282 289 308 338 327 335 211 204 203 187 206 230 259 268 237 178 174 187 186 175 178 171 171 174 175 175 171 176 175 176 178 181 184 189 191 193 195 196 197 199 199 199 200
304 291 302 321 347 9 1 347 359 198 187 192 222 262 258 204 201 203 220 190 182 178 173 173 174 176 171 172 175 175 178 182 186 189 192 193 195 197 198 199 200 200 200 199
302 309 302 330 349 356 343 343 349 359 217 214 251 267 277 279 249 216 198 180 183 172 169 176 173 173 171 174 176 177 180 186 191 193 192 193 195 197 198 199 201 199 198 197
309 304 318 326 317 326 334 345 326 339 337 175 238 270 266 262 236 220 187 179 171 166 162 164 165 168 175 177 180 181 185 189 193 195 193 194 194 195 195 196 197 197 196 194
307 316 331 343 341 337 340 344 338 339 351 326 247 230 232 216 195 186 171 163 160 157 160 163 168 171 177 181 184 186 190 192 194 193 193 193 194 194 193 193 194 194 192 190